Location: Aulnoy
(48.8410°N, 3.0967°E)
Time: 14:07:09
(UTC+00:00)

ATLAS 5 CENTAUR R/B - Pass Details

Date: 09 February 2023
Orbit: 460 x 1178 km, 63.3° (Epoch: 19 March)

Event Time Altitude Azimuth Distance (km) Brightness Sun altitude
Rises 18:05:43 0° 315° (NW) 2,822 5.5 -11.6°
Reaches altitude 10° 18:08:35 10° 337° (NNW) 2,041 4.4 -12.0°
Maximum altitude 18:11:35 17° 17° (NNE) 1,769 3.7 -12.5°
Enters shadow 18:14:00 13° 48° (NE) 2,108 3.8 -12.9°
